Location: Ermatingen
(47.6706°N, 9.0857°E)
Time: 06:17:23
(UTC+00:00)

Okean 2 - Pass Details

Date: 18 September 2020
Orbit: 559 x 577 km, 82.5° (Epoch: 27 October)

Event Time Altitude Azimuth Distance (km) Brightness Sun altitude
Rises 18:27:51 0° 346° (NNW) 2,805 7.3 -10.6°
Reaches altitude 10° 18:30:05 10° 342° (NNW) 1,900 6.5 -11.0°
Maximum altitude 18:34:10 52° 266° (W) 718 4.3 -11.7°
Drops below altitude 10° 18:38:12 10° 189° (S) 1,878 6.0 -12.3°
Sets 18:40:24 0° 185° (S) 2,768 6.8 -12.7°
